User: anonymous   Login
Location: Unspecified
(49.2170°N, 0.0000°E)
Time: 01:37:13
(UTC+00:00)
Language:

Vanguard 2 Rocket - Orbit

View from above orbital plane
View from above orbital plane
View from above satellite
View from above satellite

Ground track
Ground track

The orbit data is extracted from the following two-line orbital elements,

1    12U 59001B   21125.78448687 -.00000012  00000-0 -15866-4 0  9996
2    12  32.9068 303.1247 1666617 330.6823  20.9504 11.44399775559482
Epoch (UTC): 05 May 2021 18:49:39
Eccentricity: 0.1666617
inclination: 32.9068°
perigee height: 553 km
apogee height: 3326 km
right ascension of ascending node: 303.1247°
argument of perigee: 330.6823°
revolutions per day: 11.44399775
mean anomaly at epoch: 20.9504°
orbit number at epoch: 55948

The dashed part of the orbit path shows where the satellite is in the earth's shadow,  

DLR